www.pogodaiklimat.ru

Погода и климат >> Архив погоды >> Индия >> Пенджаб >> Лудхиана


ПОГОДА в Лудхиане

  • Прогноз погоды в Лудхиане
  • Монитор погоды в Лудхиане

АРХИВ ПОГОДЫ в Лудхиане

Время (UTC), дата Ветер
(напр.,м/с)
 
Видим.   Явления Облачность Т
(С)
Тd
(С)
f
(%)
Тe
(С)
Тes
(С)
Комфортность P
(гПа)
Po
(гПа)
Тmin
(С)
Tmax
(С)
R
(мм)
R24
(мм)
S
(см)
03 13.06 С 3 4000 м мгла ясно +29.8 +18.3 50 +35 +42 очень
душно
1001.0 972.6 +19.6 +41.4 2
06 13.06 С 3 н/о +37.4 +14.3 25 +38 +55 опасность
солнечного
удара
1000.2 972.5
09 13.06 З 3 н/о +39.4 +16.1 26 +41 +55 опасность
перегрева
998.3 970.8
12 13.06 З 0 {гроза} н/о +39.0 +16.8 27 +41 +45 опасность
перегрева
996.3 968.9 +40.2
15 13.06 0 {ливн. осадки} н/о
18 13.06 0 {снег} н/о
21 13.06 0 {гроза} н/о
00 14.06 0 н/о
03 14.06 0 {гроза} н/о
06 14.06 СЗ 2 н/о +39.8 +12.4 20 +39 +60 опасность
солнечного
удара
998.4 971.0
09 14.06 З 3 н/о +41.8 +0.9 8 +38 +54 опасность
солнечного
удара
996.3 969.1
12 14.06 З 3 н/о +41.4 +0.7 8 +38 +40 очень
жарко
995.0 967.8 +42.7
15 14.06 0 {дождь} н/о
18 14.06 0 {морось} н/о
21 14.06 0 {туман} н/о
00 15.06 0 {туман} н/о
03 15.06 С 2 н/о +36.2 +9.1 19 +35 +43 очень
жарко
998.5 970.8 +25.3 +42.7
06 15.06 СЗ 4 н/о +40.8 +9.7 16 +39 +53 опасность
солнечного
удара
998.2 970.9
09 15.06 З 3 н/о +42.6 +4.9 10 +40 +49 очень
жарко
995.7 968.6
12 15.06 Ю 1 н/о +36.6 +12.5 24 +37 +38 очень
жарко
991.3 963.8 +43.3
15 15.06 0 {морось} н/о
18 15.06 0 {туман} н/о
21 15.06 0 {метель} н/о +30.1 +30.1 100
00 16.06 0 {туман} н/о
03 16.06 ЮЗ 0 {метель} н/о +27.6 +18.9 59 +33 +35 очень
душно
1001.5 972.9 +24.4 +43.3 2
06 16.06 ЮЗ 2 н/о +30.4 +21.2 58 +38 +54 опасность
солнечного
удара
1002.0 973.6
09 16.06 З 2 н/о +35.8 +19.2 38 +41 +58 опасность
перегрева
998.6 970.8
12 16.06 ЮЗ 1 н/о +36.6 +17.5 33 +40 +44 очень
душно
996.7 969.0 +37.1
15 16.06 0 {туман} н/о
18 16.06 0 {туман} н/о
21 16.06 0 {туман} н/о
00 17.06 0 {туман} н/о
03 17.06 СЗ 1 н/о +31.8 +24.7 66 +45 +54 опасность
перегрева
999.7 971.5 +27.9 +37.1
06 17.06 З 1 н/о +36.2 +23.1 47 +46 +70 опасность
перегрева
998.6 970.9
09 17.06 З 2 н/о +38.6 +19.1 32 +43 +54 опасность
перегрева
996.4 968.9
12 17.06 З 3 н/о +38.2 +17.3 29 +41 +42 опасность
перегрева
993.7 966.3 +40.7
15 17.06 0 {ливн. осадки} н/о
18 17.06 0 {снег} н/о
21 17.06 0 {снег} н/о
00 18.06 0 {снег} н/о
03 18.06 ЮЗ 1 н/о +25.4 +19.2 69 +31 +34 очень
душно
1002.4 973.6 +22.0 +40.7 12
06 18.06 В 1 н/о +27.8 +20.2 63 +34 +45 очень
душно
1003.0 974.4
09 18.06 Ю 2 н/о +28.2 +19.6 60 +34 +37 очень
душно
1001.4 972.9
12 18.06 ЮЗ 1 н/о +31.6 +18.7 46 +36 +41 очень
душно
998.5 970.4 +31.7
15 18.06 0 {дождь} н/о
18 18.06 0 {дождь} н/о
21 18.06 0 {дождь} н/о
00 19.06 0 {дождь} н/о
03 19.06 штиль 0 н/о +29.4 +22.0 64 +38 +49 очень
душно
1000.6 972.2 +25.4 +31.7
06 19.06 штиль 0 н/о +34.0 +19.5 43 +40 +68 опасность
солнечного
удара
1000.0 972.0
09 19.06 0 {гроза} н/о
12 19.06 ЮЗ 2 н/о +37.6 +16.0 28 +39 +43 очень
душно
996.3 968.7 +37.9
15 19.06 0 {ливн. осадки} н/о
18 19.06 0 {ливн. осадки} н/о
21 19.06 0 {гроза} н/о
00 20.06 0 {гроза} н/о

 

Местоположение метеостанции Лудхиана (Пенджаб, Индия): широта 30.87 долгота 75.93 высота над уровнем моря 255 м.

В архиве по умолчанию представлена погода в Лудхиане за последнюю неделю. Архивные данные за месяц целиком и за предыдущие месяцы, начиная с января 2011 года, Вы можете получить, выбрав интересующий диапазон дат из раскрывающегося списка и нажав кнопку "Ввод!".


*Определитесь, кто Вы:
робот инопланетянин человек

Внимание! Время в таблицах - всемирное. Для получения местного времени необходимо прибавить поправку, которая равна 5.5 ч.

Смотрите также архив погоды в соседних городах и на ближайших метеорологических станциях:

Погода в Уне (Химачал-Прадеш, Индия) (74 км)
Погода в Патиале (Пенджаб, Индия) (79 км)
Погода в Чандигархе (Чандигарх, Индия) (85 км)
Погода в Амбале (Харьяна, Индия) (96 км)
Погода в Сундернагаре (Химачал-Прадеш, Индия) (118 км)
Погода в Шимле (Химачал-Прадеш, Индия) (121 км)
Погода в Амритсаре (Пенджаб, Индия) (132 км)
Погода в Кангре (Химачал-Прадеш, Индия) (141 км)
Погода в Касуре (Пакистан) (142 км)
Погода в Бантаре (Химачал-Прадеш, Индия) (159 км)

Пояснения к столбцам:

Ветер - указаны скорость ветра в м/с - средняя за 10 мин, порывы в срок и между сроками (в фигурных скобках) и направление, откуда дует ветер: С - северный, СВ - северо-восточный, В - восточный, ЮВ - юго-восточный, Ю - южный, ЮЗ - юго-западный, З - западный, СЗ - северо-западный.
Видимость - горизонтальная дальность видимости в метрах или километрах. При видимости от 1 до 10 км при отсутствии осадков обычно наблюдается дымка, при ухудшении видимости до 1 км и менее - туман. В сухую погоду видимость может ухудшаться дымом, пылью или мглою.
Явления - указаны атмосферные явления, наблюдавшиеся в срок или в последний час перед сроком; фигурными скобками обозначены явления, наблюдавшиеся между сроками (за 1-3 часа до срока); квадратными скобками обозначены град или гололедные отложения с указанием их диаметра в мм.
Облачность - указаны через наклонную черту общая и нижняя облачность в баллах и высота нижней границы облаков в метрах; квадратными скобками обозначены формы облаков: Ci - перистые, Cs - перисто-слоистые, Cc - перисто-кучевые, Ac - высококучевые, As - высокослоистые, Sc - слоисто-кучевые, Ns - слоисто-дождевые, Cu - кучевые, Cb - кучево-дождевые. Подробнее классификацию облаков см. в Атласе облаков (PDF).
T - Температура воздуха - температура, измеренная на высоте 2 м над землей.
Td - Температура точки росы - температура, при понижении до которой содержащийся в воздухе водяной пар достигнет насыщения.
f - Относительная влажность воздуха - влажноcть воздуха, измеренная на высоте 2 м над землей.
Te - Эффективная температура - температура, которую ощущает одетый по сезону человек в тени. Характеристика душности погоды. При расчете учитывается влияние влажности воздуха и скорости ветра на теплоощущения человека.
Tes - Эффективная температура на солнце - температура, которую ощущает человек, с поправкой на солнечный нагрев. Характеристика знойности погоды. Зависит от высоты солнца над горизонтом, облачности и скорости ветра. Ночью, в пасмурную погоду, а также при ветре 12 м/с и более поправка равна нулю.
P - Атмосферное давление - приведенное к уровню моря атмосферное давление.
Po - Атмосферное давление - измеренное на уровне метеостанции атмосферное давление.
Tmin - Минимальная температура - минимум температуры воздуха на высоте 2 м над землей.
Tmax - Максимальная температура - максимум температуры воздуха на высоте 2 м над землей.
R - Количество осадков - Количество выпавших осадков за период времени, мм. При наведении курсора мыши на число - период времени, за который выпало указанное количество осадков.
R24 - Количество осадков - Количество выпавших осадков за 24 часа, мм.
S - Снежный покров - Высота снежного покрова, см. При наведении курсора мыши на число - состояние снежного покрова и степень покрытия местности в баллах.